Estación meteorológica de Els Cortals - St. Hilari Sacalm (La Selva, Guilleries)

Consulta los datos en tiempo real de la estación meteorológica de Els Cortals - St. Hilari Sacalm





Hora UTC 07:50
Temperatura 20.1 ºC
Humedad 81.0 %
Presión 1013.3 hPa
Pluja 0.0 mm
Velocidad viento 0.0 km/h
Dirección viento SSW

Datos diarios 2026-09-01



Hora UTC (invierno +1h; verano +2h)
Temperatura (ºC) Humedad (%) Presión (hPa) Velocidad viento (km/h) Precipitación (mm)
Hora UTC Aire Humedad Presión Vel. Dir. Vel. Max Dir. Intent. máx 5 min.
00:05 18.1 70.0 1014.2 0.0 E 0.0 0.0
00:10 18.0 70.0 1014.2 0.0 E 0.0 0.0
00:15 18.1 71.0 1014.1 0.0 E 0.0 0.0
00:20 18.0 71.0 1014.1 0.0 E 0.0 0.0
00:25 17.9 71.0 1014.1 0.0 E 0.0 0.0
00:30 17.9 72.0 1014.1 0.0 E 0.0 0.0
00:35 17.8 72.0 1014.1 0.0 E 0.0 0.0
00:40 17.7 73.0 1014.1 0.0 E 0.0 0.0
00:45 17.8 72.0 1014.2 0.0 E 0.0 0.0
00:50 17.8 72.0 1014.1 0.0 E 0.0 0.0
00:55 17.8 72.0 1014.2 0.0 E 0.0 0.0
01:00 17.8 73.0 1014.1 0.0 E 0.0 0.0
01:05 17.7 73.0 1014.0 0.0 E 0.0 0.0
01:10 17.7 72.0 1014.0 0.0 E 0.0 0.0
01:15 17.7 72.0 1014.0 0.0 E 0.0 0.0
01:20 17.7 72.0 1014.0 0.0 E 0.0 0.0
01:25 17.8 72.0 1014.1 0.0 E 0.0 0.0
01:30 17.8 72.0 1014.1 0.0 E 0.0 0.0
01:35 17.8 72.0 1014.0 0.0 E 0.0 0.0
01:40 17.8 72.0 1014.0 0.0 E 0.0 0.0
01:45 17.8 72.0 1014.1 0.0 E 0.0 0.0
01:50 17.9 72.0 1014.1 0.0 E 0.0 0.0
01:55 17.9 71.0 1014.0 0.0 E 0.0 0.0
02:00 17.9 71.0 1014.0 0.0 E 0.0 0.0
02:05 18.0 71.0 1013.9 0.0 E 0.0 0.0
02:10 18.0 71.0 1013.9 0.0 E 0.0 0.0
02:15 18.1 71.0 1014.0 0.0 E 0.0 0.0
02:20 18.1 71.0 1013.8 0.0 E 0.0 0.0
02:25 18.1 71.0 1013.9 0.0 E 0.0 0.0
02:30 18.1 71.0 1013.8 0.0 E 0.0 0.0
02:35 18.1 71.0 1013.8 0.0 E 0.0 0.0
02:40 18.1 71.0 1013.6 0.0 W 0.0 0.0
02:45 18.1 71.0 1013.5 0.0 W 0.0 0.0
02:50 18.1 71.0 1013.5 0.0 W 0.0 0.0
02:55 18.0 71.0 1013.4 0.0 SW 0.0 0.0
03:00 17.9 70.0 1013.5 0.0 WSW 0.0 0.0
03:05 17.9 70.0 1013.6 0.0 W 0.0 0.0
03:10 17.9 70.0 1013.4 0.0 WSW 0.0 0.0
03:15 17.9 70.0 1013.4 0.0 SW 0.0 0.0
03:20 17.9 70.0 1013.3 0.0 WSW 0.0 0.0
03:25 17.9 70.0 1013.3 0.0 WSW 0.0 0.0
03:30 17.9 70.0 1013.2 0.0 W 0.0 0.0
03:35 17.9 70.0 1013.3 0.0 W 0.0 0.0
03:40 17.9 70.0 1013.2 0.0 SW 0.0 0.0
03:45 17.8 70.0 1013.2 0.0 WSW 0.0 0.0
03:50 17.8 70.0 1013.3 0.0 WSW 0.0 0.0
03:55 17.8 70.0 1013.2 0.0 WSW 0.0 0.0
04:00 17.8 69.0 1013.2 0.0 W 0.0 0.0
04:05 17.8 69.0 1013.2 0.0 W 0.0 0.0
04:10 17.8 69.0 1013.1 0.0 NW 0.0 0.0
04:15 17.8 69.0 1013.1 0.0 WSW 0.0 0.0
04:20 17.8 69.0 1013.1 0.0 WSW 0.0 0.0
04:25 17.7 69.0 1013.1 0.0 WSW 0.0 0.0
04:30 17.7 69.0 1013.0 0.0 WSW 0.0 0.0
04:35 17.7 70.0 1012.9 0.0 WSW 0.0 0.0
04:40 17.6 70.0 1013.0 0.0 WSW 0.0 0.0
04:45 17.6 70.0 1013.1 0.0 WSW 0.0 0.0
04:50 17.5 70.0 1013.1 0.0 WSW 0.0 0.0
04:55 17.4 70.0 1013.1 0.0 WSW 0.0 0.0
05:00 17.3 71.0 1013.0 0.0 WSW 0.0 0.0
05:05 17.3 70.0 1013.0 0.0 W 0.0 0.0
05:10 17.4 70.0 1013.0 0.0 W 0.0 0.0
05:15 17.6 69.0 1013.1 0.0 W 0.0 0.0
05:20 17.6 69.0 1013.1 0.0 W 0.0 0.0
05:25 17.5 69.0 1013.1 0.0 W 0.0 0.0
05:30 17.4 69.0 1013.2 0.0 W 0.0 0.0
05:35 17.4 69.0 1013.2 0.0 W 0.0 0.0
05:40 17.4 69.0 1013.2 0.0 W 0.0 0.0
05:45 17.4 69.0 1013.2 0.0 W 0.0 0.0
05:50 17.4 69.0 1013.3 0.0 W 0.0 0.0
05:55 17.4 69.0 1013.3 0.0 W 0.0 0.0
06:00 17.5 68.0 1013.4 0.0 WNW 0.0 0.0
06:05 17.6 68.0 1013.3 0.0 W 0.0 0.0
06:10 17.7 68.0 1013.4 0.0 W 0.0 0.0
06:15 17.7 68.0 1013.4 0.0 W 0.0 0.0
06:20 17.9 67.0 1013.4 0.0 W 0.0 0.0
06:25 18.0 67.0 1013.4 0.0 WSW 0.0 0.0
06:30 18.2 68.0 1013.5 0.0 WSW 0.0 0.0
06:35 18.4 68.0 1013.5 0.0 WSW 0.0 0.0
06:40 18.7 69.0 1013.4 0.0 W 0.0 0.0
06:45 18.9 70.0 1013.5 0.0 WSW 0.0 0.0
06:50 19.1 73.0 1013.4 0.0 WSW 0.0 0.0
06:55 19.1 76.0 1013.5 0.0 WSW 0.0 0.0
07:00 19.3 77.0 1013.5 0.0 WSW 0.0 0.0
07:05 19.6 79.0 1013.6 0.0 WSW 0.0 0.0
07:10 19.8 80.0 1013.6 0.0 ESE 0.0 0.0
07:15 20.2 81.0 1013.3 0.0 NE 0.0 0.0
07:20 20.3 81.0 1013.2 0.0 NE 0.0 0.0
07:25 20.4 81.0 1013.4 0.0 NNE 0.0 0.0
07:30 20.5 81.0 1013.4 0.0 NNE 0.0 0.0
07:35 20.6 81.0 1013.5 0.0 NNE 0.0 0.0
07:40 20.4 81.0 1013.4 0.0 E 0.0 0.0
07:45 20.2 81.0 1013.5 0.0 SSE 0.0 0.0
07:50 20.1 81.0 1013.3 0.0 SSW 0.0 0.0
Máxima 20.6 81.0 1014.2 0.0 SSW 0.0 0.0
Mínima 17.3 67.0 1012.9
Total 0.0